GW1242 Weather Reports


Display with metric or nautical units.
time (UTC)temp
F
wind
direction
speed
MPH
gust
MPH
rain 1hr
in
rain 24hr
in
rain mn
in
humidity
%
barometer
mb
20260504041615 39 337 0.0 0.0 0.00 0.00 0.00 89 1113.0
20260504040047 39 337 0.0 0.0 0.00 0.00 0.00 88 1112.8
20260504034537 39 337 0.0 0.0 0.00 0.00 0.00 88 1112.7
20260504033038 40 337 0.0 0.0 0.00 0.00 0.00 88 1112.8
20260504031538 40 337 0.0 0.0 0.00 0.00 0.00 87 1112.7
20260504030041 40 337 0.0 0.0 0.00 0.00 0.00 85 1112.8
20260504024530 41 337 0.0 0.0 0.00 0.00 0.00 84 1112.8
20260504014538 46 337 0.0 0.0 0.00 0.00 0.00 74 1112.4
20260504010040 50 337 0.0 0.0 0.00 0.00 0.00 65 1112.6
20260504004539 52 337 0.0 0.0 0.00 0.00 0.00 59 1112.5
20260504003116 56 337 0.0 0.0 0.00 0.00 0.00 51 1112.4
20260504001537 61 337 0.0 0.0 0.00 0.00 0.00 46 1112.2
20260503234549 62 225 2.0 6.0 0.00 0.00 0.00 39 1112.2
20260503233038 63 225 3.0 7.0 0.00 0.00 0.00 38 1112.3
20260503231549 62 248 3.0 10.0 0.00 0.00 0.00 40 1114.8
20260503231540 62 224 3.0 8.0 0.00 0.00 0.00 39 1115.0
20260503191540 61 225 3.0 12.0 0.00 0.00 0.00 41 1115.3
20260503190030 62 251 4.0 8.0 0.00 0.00 0.00 41 1115.4
20260503184539 61 273 0.0 5.0 0.00 0.00 0.00 41 1115.6
20260503183107 60 244 4.0 11.0 0.00 0.00 0.00 42 1116.0
20260503180041 61 279 3.0 7.0 0.00 0.00 0.00 39 1116.4
20260503171530 59 212 2.0 7.0 0.00 0.00 0.00 40 1117.0
20260503160148 57 184 1.0 5.0 0.00 0.00 0.00 42 1117.9
20260503130149 40 239 1.0 3.0 0.00 0.00 0.00 95 1117.7
20260503081539 36 327 0.0 1.0 0.00 0.00 0.00 88 1114.6
20260503080143 36 315 0.0 0.0 0.00 0.00 0.00 88 1114.4
20260503071539 39 315 0.0 2.0 0.00 0.00 0.00 86 1114.1
20260503054532 42 315 0.0 0.0 0.00 0.00 0.00 81 1114.0
20260503053032 41 315 0.0 0.0 0.00 0.00 0.00 79 1114.1
20260503051540 42 315 0.0 0.0 0.00 0.00 0.00 76 1114.0
20260503050031 43 315 0.0 0.0 0.00 0.00 0.00 74 1113.9
20260503044650 45 315 0.0 0.0 0.00 0.00 0.00 71 1113.9